Terminal Aerodrome Forecast
Issued by NWS Wilmington, OH

Current Version | Previous Version | Graphics & Text | Print | Product List | Glossary On
Versions: 1 2 3 4 5 6 7 8 9 10 11 12 13 14 15 16 17 18 19 20
000
FTUS41 KILN 241100
TAFCMH
TAF
KCMH 241132Z 2412/2512 01007KT P6SM SCT040
     FM241400 02010KT P6SM BKN035
     FM250000 01006KT P6SM SCT035
     FM250300 02004KT P6SM SKC=

USA.gov is the U.S. government's official web portal to all federal, state and local government web resources and services.